Weather History for Huntington, WV

Change the Weather History Date:

Thursday, April 18, 2013

  Actual Average Record
Temperature  
Mean Temperature 72 °F 57 °F  
Max Temperature 86 °F 69 °F 89 °F (1955)
Min Temperature 57 °F 45 °F 27 °F (1905)
Degree Days  
Heating Degree Days 0 9  
Month to date heating degree days 149 204  
Since 1 July heating degree days 4325 4301  
Cooling Degree Days 7 1  
Month to date cooling degree days 43 17  
Year to date cooling degree days 43 22  
Growing Degree Days 22 (Base 50)    
Moisture  
Dew Point 55 °F    
Average Humidity 65    
Maximum Humidity 93    
Minimum Humidity 37    
Precipitation  
Precipitation 0.00 in 0.11 in 1.39 in (1938)
Month to date precipitation 1.74 2.00  
Year to date precipitation 11.31 11.94  
Snow  
Snow 0.00 in - - ()
Month to date snowfall 0.0  
Since 1 September snowfall 12.4  
Snow Depth 0.00 in    
Sea Level Pressure  
Sea Level Pressure 29.89 in    
Wind  
Wind Speed 9 mph (South)    
Max Wind Speed 20 mph    
Max Gust Speed 26 mph    
Visibility 10 miles    
Events      
T = Trace of Precipitation, MM = Missing Value Source: NWS Daily Summary

Daily Weather History Graph

Daily Weather History Graph

Search for Another Location

Airport:

Trip Planner

Search our weather history database for the weather conditions in past years. The results will help you decide how hot, cold, wet, or windy it might be!

Date:

Astronomy

Apr. 18, 2013 Rise Set
Actual Time 6:49 AM EDT 8:09 PM EDT
Civil Twilight 6:22 AM EDT 8:37 PM EDT
Nautical Twilight 5:49 AM EDT 9:10 PM EDT
Astronomical Twilight 5:14 AM EDT 9:45 PM EDT
Moon 1:01 PM EDT (4/18) 2:22 AM EDT (4/18)
Length of Visible Light 14h 15m
Length of Day
13h 19m
First Quarter, 51% of the Moon is Illuminated
Apr 18
First Quarter
Apr 25
Full
May 2
Last Quarter
May 9
New
May 18
First Quarter

Hourly Weather History & Observations

Time (EDT) Temp. Heat Index Dew Point Humidity Pressure Visibility Wind Dir Wind Speed Gust Speed Precip Events Conditions
12:51 AM 62.1 °F - 57.0 °F 84% 30.02 in 10.0 mi ESE 4.6 mph - N/A   Clear
1:51 AM 61.0 °F - 57.0 °F 87% 30.00 in 10.0 mi ESE 5.8 mph - N/A   Clear
2:51 AM 60.1 °F - 55.9 °F 86% 29.98 in 10.0 mi Calm Calm - N/A   Clear
3:51 AM 57.9 °F - 55.9 °F 93% 29.95 in 10.0 mi ESE 4.6 mph - N/A   Clear
4:51 AM 57.9 °F - 55.9 °F 93% 29.95 in 10.0 mi Calm Calm - N/A   Clear
5:51 AM 57.0 °F - 55.0 °F 93% 29.95 in 10.0 mi East 3.5 mph - N/A   Clear
6:51 AM 59.0 °F - 55.0 °F 87% 29.97 in 10.0 mi Calm Calm - N/A   Clear
7:51 AM 63.0 °F - 57.0 °F 81% 29.99 in 10.0 mi South 3.5 mph - N/A   Clear
8:51 AM 69.1 °F - 57.0 °F 65% 29.98 in 10.0 mi SSW 5.8 mph - N/A   Partly Cloudy
9:51 AM 73.9 °F - 57.0 °F 55% 29.97 in 10.0 mi SW 5.8 mph - N/A   Partly Cloudy
10:51 AM 75.9 °F - 57.9 °F 54% 29.96 in 10.0 mi SSW 8.1 mph 16.1 mph N/A   Overcast
11:51 AM 79.0 °F - 57.9 °F 48% 29.95 in 10.0 mi South 13.8 mph 24.2 mph N/A   Clear
12:51 PM 82.0 °F 82.1 °F 59.0 °F 45% 29.91 in 10.0 mi South 12.7 mph 19.6 mph N/A   Mostly Cloudy
1:51 PM 82.9 °F 82.4 °F 57.0 °F 41% 29.87 in 10.0 mi South 15.0 mph 26.5 mph N/A   Clear
2:51 PM 84.9 °F 84.2 °F 57.9 °F 40% 29.86 in 10.0 mi South 16.1 mph 23.0 mph N/A   Scattered Clouds
3:51 PM 84.0 °F 83.3 °F 57.0 °F 40% 29.84 in 10.0 mi SSW 10.4 mph 21.9 mph N/A   Scattered Clouds
4:51 PM 84.9 °F 83.9 °F 57.0 °F 38% 29.81 in 10.0 mi South 9.2 mph - N/A   Partly Cloudy
5:51 PM 82.9 °F 82.0 °F 55.0 °F 38% 29.80 in 10.0 mi South 13.8 mph 19.6 mph N/A   Mostly Cloudy
6:51 PM 82.0 °F 81.3 °F 54.0 °F 38% 29.78 in 10.0 mi South 12.7 mph 21.9 mph N/A   Clear
7:51 PM 81.0 °F 80.4 °F 53.1 °F 38% 29.77 in 10.0 mi South 11.5 mph - N/A   Clear
8:51 PM 79.0 °F - 52.0 °F 39% 29.78 in 10.0 mi South 13.8 mph 23.0 mph N/A   Clear
9:51 PM 77.0 °F - 50.0 °F 39% 29.78 in 10.0 mi SSE 13.8 mph 24.2 mph N/A   Clear
10:51 PM 75.0 °F - 50.0 °F 41% 29.77 in 10.0 mi SSE 10.4 mph 18.4 mph N/A   Clear
11:51 PM 75.0 °F - 50.0 °F 41% 29.72 in 10.0 mi South 10.4 mph 18.4 mph N/A   Clear